Time,TemperatureF,DewpointF,PressureIn,WindDirection,WindDirectionDegrees,WindSpeedMPH,WindSpeedGustMPH,Humidity,HourlyPrecipIn,Conditions,Clouds,dailyrainin,SolarRadiationWatts/m^2,SoftwareType,DateUTC
2013-09-03 00:01:00,60.7,56.0,29.87,NE,41,5.0,8.0,83,0.00,,,0.00,0,weatherlink.com 1.10,2013-09-03 04:01:00,
2013-09-03 00:16:00,60.1,55.0,29.88,NE,55,7.0,10.0,83,0.00,,,0.00,0,weatherlink.com 1.10,2013-09-03 04:16:00,
2013-09-03 00:31:00,59.6,54.0,29.88,NE,52,5.0,7.0,83,0.00,,,0.00,0,weatherlink.com 1.10,2013-09-03 04:31:00,
2013-09-03 00:46:00,59.0,54.0,29.88,ENE,60,3.0,9.0,84,0.00,,,0.00,0,weatherlink.com 1.10,2013-09-03 04:46:00,
2013-09-03 01:01:00,58.6,54.0,29.87,NE,56,3.0,5.0,85,0.00,,,0.00,0,weatherlink.com 1.10,2013-09-03 05:01:00,
2013-09-03 01:16:00,58.2,54.0,29.88,NE,56,4.0,5.0,86,0.00,,,0.00,0,weatherlink.com 1.10,2013-09-03 05:16:00,
2013-09-03 01:31:00,58.0,54.0,29.88,ENE,75,5.0,7.0,85,0.00,,,0.00,0,weatherlink.com 1.10,2013-09-03 05:31:00,
2013-09-03 01:46:00,58.0,54.0,29.87,NE,43,0.0,5.0,85,0.00,,,0.00,0,weatherlink.com 1.10,2013-09-03 05:46:00,
2013-09-03 02:01:00,57.9,54.0,29.87,NE,42,0.0,3.0,85,0.00,,,0.00,0,weatherlink.com 1.10,2013-09-03 06:01:00,
2013-09-03 02:16:00,57.6,53.0,29.88,NE,45,1.0,5.0,85,0.00,,,0.00,0,weatherlink.com 1.10,2013-09-03 06:16:00,
2013-09-03 02:31:00,57.3,53.0,29.88,NE,45,0.0,4.0,86,0.00,,,0.00,0,weatherlink.com 1.10,2013-09-03 06:31:00,
2013-09-03 02:46:00,56.9,53.0,29.87,NE,45,1.0,3.0,86,0.00,,,0.00,0,weatherlink.com 1.10,2013-09-03 06:46:00,
2013-09-03 03:01:00,56.6,53.0,29.87,NE,45,1.0,3.0,87,0.00,,,0.00,0,weatherlink.com 1.10,2013-09-03 07:01:00,
2013-09-03 03:16:00,56.3,53.0,29.87,NE,44,0.0,0.0,88,0.00,,,0.00,0,weatherlink.com 1.10,2013-09-03 07:16:00,
2013-09-03 03:31:00,55.6,53.0,29.88,NE,45,0.0,1.0,89,0.00,,,0.00,0,weatherlink.com 1.10,2013-09-03 07:31:00,
2013-09-03 03:46:00,55.1,52.0,29.87,NE,44,0.0,1.0,90,0.00,,,0.00,0,weatherlink.com 1.10,2013-09-03 07:46:00,
2013-09-03 04:01:00,54.8,52.0,29.88,NE,45,0.0,1.0,91,0.00,,,0.00,0,weatherlink.com 1.10,2013-09-03 08:01:00,
2013-09-03 04:16:00,54.5,52.0,29.89,NE,44,0.0,1.0,91,0.00,,,0.00,0,weatherlink.com 1.10,2013-09-03 08:16:00,
2013-09-03 04:32:00,54.2,52.0,29.90,NE,45,0.0,1.0,92,0.00,,,0.00,0,weatherlink.com 1.10,2013-09-03 08:32:00,
2013-09-03 04:47:00,54.5,52.0,29.89,NE,45,0.0,0.0,92,0.00,,,0.00,0,weatherlink.com 1.10,2013-09-03 08:47:00,
2013-09-03 05:02:00,55.1,53.0,29.90,NE,44,1.0,2.0,92,0.00,,,0.00,0,weatherlink.com 1.10,2013-09-03 09:02:00,
2013-09-03 05:17:00,55.3,53.0,29.91,NE,45,0.0,1.0,91,0.00,,,0.00,0,weatherlink.com 1.10,2013-09-03 09:17:00,
2013-09-03 05:32:00,55.8,53.0,29.90,NE,45,0.0,0.0,90,0.00,,,0.00,0,weatherlink.com 1.10,2013-09-03 09:32:00,
2013-09-03 05:47:00,56.2,53.0,29.91,NE,45,0.0,1.0,90,0.00,,,0.00,0,weatherlink.com 1.10,2013-09-03 09:47:00,
2013-09-03 06:02:00,56.8,54.0,29.92,NE,45,0.0,0.0,89,0.00,,,0.00,0,weatherlink.com 1.10,2013-09-03 10:02:00,
2013-09-03 06:17:00,57.2,54.0,29.91,NE,45,0.0,0.0,89,0.00,,,0.00,0,weatherlink.com 1.10,2013-09-03 10:17:00,
2013-09-03 06:32:00,57.5,54.0,29.92,NE,45,0.0,0.0,89,0.00,,,0.00,0,weatherlink.com 1.10,2013-09-03 10:32:00,
2013-09-03 06:47:00,57.3,54.0,29.92,NE,45,0.0,0.0,88,0.00,,,0.00,0,weatherlink.com 1.10,2013-09-03 10:47:00,
2013-09-03 07:02:00,57.5,54.0,29.94,NE,45,0.0,0.0,88,0.00,,,0.00,0,weatherlink.com 1.10,2013-09-03 11:02:00,
2013-09-03 07:17:00,57.6,54.0,29.94,NE,45,0.0,0.0,88,0.00,,,0.00,0,weatherlink.com 1.10,2013-09-03 11:17:00,
2013-09-03 07:32:00,57.7,54.0,29.94,NE,45,2.0,2.0,88,0.00,,,0.00,9,weatherlink.com 1.10,2013-09-03 11:32:00,
2013-09-03 07:47:00,57.7,54.0,29.95,NE,45,0.0,2.0,88,0.00,,,0.00,21,weatherlink.com 1.10,2013-09-03 11:47:00,
2013-09-03 08:02:00,58.2,54.0,29.95,NNW,342,2.0,5.0,86,0.00,,,0.00,39,weatherlink.com 1.10,2013-09-03 12:02:00,
2013-09-03 08:17:00,58.2,54.0,29.95,NNW,340,1.0,4.0,85,0.00,,,0.00,56,weatherlink.com 1.10,2013-09-03 12:17:00,
2013-09-03 08:32:00,58.2,54.0,29.96,NNW,333,2.0,5.0,85,0.00,,,0.00,105,weatherlink.com 1.10,2013-09-03 12:32:00,
2013-09-03 08:47:00,59.2,54.0,29.96,NNW,332,2.0,4.0,83,0.00,,,0.00,105,weatherlink.com 1.10,2013-09-03 12:47:00,
2013-09-03 09:02:00,59.4,54.0,29.96,NNW,332,2.0,4.0,83,0.00,,,0.00,162,weatherlink.com 1.10,2013-09-03 13:02:00,
2013-09-03 09:17:00,59.6,54.0,29.97,NW,320,2.0,7.0,83,0.00,,,0.00,174,weatherlink.com 1.10,2013-09-03 13:17:00,
2013-09-03 09:32:00,60.3,55.0,29.97,NW,320,0.0,4.0,82,0.00,,,0.00,207,weatherlink.com 1.10,2013-09-03 13:32:00,
2013-09-03 09:47:00,60.9,55.0,29.97,NW,321,0.0,5.0,81,0.00,,,0.00,260,weatherlink.com 1.10,2013-09-03 13:47:00,
2013-09-03 10:02:00,62.0,55.0,29.97,NW,319,0.0,5.0,77,0.00,,,0.00,302,weatherlink.com 1.10,2013-09-03 14:02:00,
2013-09-03 10:17:00,63.1,54.0,29.96,NW,319,3.0,4.0,73,0.00,,,0.00,350,weatherlink.com 1.10,2013-09-03 14:17:00,
2013-09-03 10:32:00,64.3,55.0,29.97,NE,34,1.0,3.0,71,0.00,,,0.00,403,weatherlink.com 1.10,2013-09-03 14:32:00,
2013-09-03 10:47:00,64.6,55.0,29.97,NNW,341,0.0,7.0,71,0.00,,,0.00,366,weatherlink.com 1.10,2013-09-03 14:47:00,
2013-09-03 11:02:00,65.2,55.0,29.98,NW,308,2.0,6.0,70,0.00,,,0.00,647,weatherlink.com 1.10,2013-09-03 15:02:00,
2013-09-03 11:17:00,66.1,56.0,29.97,NNW,330,2.0,6.0,70,0.00,,,0.00,654,weatherlink.com 1.10,2013-09-03 15:17:00,
2013-09-03 11:32:00,66.8,55.0,29.98,WNW,289,4.0,7.0,67,0.00,,,0.00,693,weatherlink.com 1.10,2013-09-03 15:32:00,
2013-09-03 11:47:00,67.2,56.0,29.99,North,359,6.0,12.0,67,0.00,,,0.00,738,weatherlink.com 1.10,2013-09-03 15:47:00,
2013-09-03 12:03:00,67.3,56.0,29.98,NE,37,0.0,6.0,68,0.00,,,0.00,881,weatherlink.com 1.10,2013-09-03 16:03:00,
2013-09-03 12:18:00,67.7,56.0,29.98,NW,311,1.0,7.0,67,0.00,,,0.00,958,weatherlink.com 1.10,2013-09-03 16:18:00,
2013-09-03 12:33:00,68.8,57.0,29.99,NW,322,2.0,7.0,66,0.00,,,0.00,408,weatherlink.com 1.10,2013-09-03 16:33:00,
2013-09-03 12:48:00,68.7,57.0,29.98,WNW,294,4.0,9.0,66,0.00,,,0.00,1076,weatherlink.com 1.10,2013-09-03 16:48:00,
2013-09-03 13:03:00,68.8,56.0,29.98,North,4,7.0,9.0,64,0.00,,,0.00,346,weatherlink.com 1.10,2013-09-03 17:03:00,
2013-09-03 13:18:00,68.8,56.0,29.97,NNW,343,2.0,9.0,65,0.00,,,0.00,404,weatherlink.com 1.10,2013-09-03 17:18:00,
2013-09-03 13:33:00,69.3,57.0,29.98,NW,310,1.0,9.0,64,0.00,,,0.00,281,weatherlink.com 1.10,2013-09-03 17:33:00,
2013-09-03 13:48:00,70.8,57.0,29.97,NW,322,3.0,6.0,62,0.00,,,0.00,323,weatherlink.com 1.10,2013-09-03 17:48:00,
2013-09-03 14:03:00,70.1,56.0,29.97,NNW,337,2.0,9.0,61,0.00,,,0.00,925,weatherlink.com 1.10,2013-09-03 18:03:00,
2013-09-03 14:18:00,70.3,57.0,29.97,WNW,284,4.0,8.0,63,0.00,,,0.00,267,weatherlink.com 1.10,2013-09-03 18:18:00,
2013-09-03 14:33:00,70.9,57.0,29.96,WSW,247,0.0,7.0,62,0.00,,,0.00,520,weatherlink.com 1.10,2013-09-03 18:33:00,
2013-09-03 14:48:00,71.5,56.0,29.95,NW,308,6.0,9.0,59,0.00,,,0.00,429,weatherlink.com 1.10,2013-09-03 18:48:00,
2013-09-03 15:03:00,70.9,56.0,29.96,WNW,303,5.0,8.0,60,0.00,,,0.00,329,weatherlink.com 1.10,2013-09-03 19:03:00,
2013-09-03 15:18:00,72.8,57.0,29.96,NW,309,6.0,10.0,57,0.00,,,0.00,1088,weatherlink.com 1.10,2013-09-03 19:18:00,
2013-09-03 15:33:00,74.0,57.0,29.95,North,4,3.0,7.0,56,0.00,,,0.00,244,weatherlink.com 1.10,2013-09-03 19:33:00,
2013-09-03 15:48:00,72.3,57.0,29.94,NW,324,3.0,7.0,59,0.00,,,0.00,204,weatherlink.com 1.10,2013-09-03 19:48:00,
2013-09-03 16:03:00,73.4,57.0,29.95,NNW,331,5.0,9.0,57,0.00,,,0.00,271,weatherlink.com 1.10,2013-09-03 20:03:00,
2013-09-03 16:18:00,73.1,56.0,29.94,West,261,3.0,7.0,55,0.00,,,0.00,744,weatherlink.com 1.10,2013-09-03 20:18:00,
2013-09-03 16:33:00,72.9,57.0,29.91,NNE,12,3.0,9.0,57,0.00,,,0.00,188,weatherlink.com 1.10,2013-09-03 20:33:00,
2013-09-03 16:48:00,72.3,57.0,29.92,WNW,301,3.0,7.0,58,0.00,,,0.00,645,weatherlink.com 1.10,2013-09-03 20:48:00,
2013-09-03 17:03:00,73.4,57.0,29.91,West,280,3.0,7.0,56,0.00,,,0.00,587,weatherlink.com 1.10,2013-09-03 21:03:00,
2013-09-03 17:18:00,74.0,56.0,29.92,WNW,287,2.0,9.0,54,0.00,,,0.00,578,weatherlink.com 1.10,2013-09-03 21:18:00,
2013-09-03 17:33:00,74.2,57.0,29.92,NNE,26,3.0,8.0,56,0.00,,,0.00,540,weatherlink.com 1.10,2013-09-03 21:33:00,
2013-09-03 17:48:00,74.1,57.0,29.93,NNE,12,1.0,6.0,55,0.00,,,0.00,476,weatherlink.com 1.10,2013-09-03 21:48:00,
2013-09-03 18:03:00,73.8,57.0,29.92,NW,324,1.0,8.0,56,0.00,,,0.00,193,weatherlink.com 1.10,2013-09-03 22:03:00,
2013-09-03 18:18:00,73.4,57.0,29.93,WNW,303,1.0,7.0,57,0.00,,,0.00,338,weatherlink.com 1.10,2013-09-03 22:18:00,
2013-09-03 18:33:00,73.2,56.0,29.93,West,281,3.0,7.0,56,0.00,,,0.00,188,weatherlink.com 1.10,2013-09-03 22:33:00,
2013-09-03 18:48:00,72.6,57.0,29.93,NW,320,3.0,9.0,58,0.00,,,0.00,186,weatherlink.com 1.10,2013-09-03 22:48:00,
2013-09-03 19:03:00,72.0,57.0,29.93,NW,311,2.0,9.0,59,0.00,,,0.00,69,weatherlink.com 1.10,2013-09-03 23:03:00,
2013-09-03 19:18:00,71.2,58.0,29.94,WNW,295,2.0,8.0,63,0.00,,,0.00,60,weatherlink.com 1.10,2013-09-03 23:18:00,
2013-09-03 19:33:00,70.3,58.0,29.93,NNW,342,2.0,8.0,66,0.00,,,0.00,35,weatherlink.com 1.10,2013-09-03 23:33:00,
2013-09-03 19:48:00,69.6,58.0,29.94,NNW,342,1.0,5.0,67,0.00,,,0.00,23,weatherlink.com 1.10,2013-09-03 23:48:00,
2013-09-03 20:03:00,68.9,58.0,29.94,NNW,342,1.0,3.0,69,0.00,,,0.00,12,weatherlink.com 1.10,2013-09-04 00:03:00,
2013-09-03 20:19:00,68.2,58.0,29.95,NNW,342,1.0,3.0,70,0.00,,,0.00,0,weatherlink.com 1.10,2013-09-04 00:19:00,
2013-09-03 20:33:00,67.8,58.0,29.95,NNW,342,0.0,2.0,71,0.00,,,0.00,0,weatherlink.com 1.10,2013-09-04 00:33:00,
2013-09-03 20:48:00,67.1,58.0,29.95,NNW,342,0.0,2.0,73,0.00,,,0.00,0,weatherlink.com 1.10,2013-09-04 00:48:00,
2013-09-03 21:03:00,66.2,58.0,29.95,NNW,342,0.0,0.0,76,0.00,,,0.00,0,weatherlink.com 1.10,2013-09-04 01:03:00,
2013-09-03 21:18:00,65.2,58.0,29.95,NNW,342,0.0,0.0,78,0.00,,,0.00,0,weatherlink.com 1.10,2013-09-04 01:18:00,
2013-09-03 21:33:00,64.3,58.0,29.96,NNW,342,0.0,0.0,80,0.00,,,0.00,0,weatherlink.com 1.10,2013-09-04 01:33:00,
2013-09-03 21:48:00,63.4,58.0,29.95,NNW,342,0.0,0.0,83,0.00,,,0.00,0,weatherlink.com 1.10,2013-09-04 01:48:00,
2013-09-03 22:03:00,62.5,58.0,29.95,NNW,342,0.0,1.0,84,0.00,,,0.00,0,weatherlink.com 1.10,2013-09-04 02:03:00,
2013-09-03 22:18:00,61.7,58.0,29.96,NNW,342,0.0,0.0,86,0.00,,,0.00,0,weatherlink.com 1.10,2013-09-04 02:18:00,
2013-09-03 22:33:00,61.3,57.0,29.95,NNW,342,0.0,0.0,87,0.00,,,0.00,0,weatherlink.com 1.10,2013-09-04 02:33:00,
2013-09-03 22:48:00,60.7,57.0,29.96,NNW,342,0.0,0.0,88,0.00,,,0.00,0,weatherlink.com 1.10,2013-09-04 02:48:00,
2013-09-03 23:03:00,60.2,57.0,29.96,NNW,342,0.0,0.0,89,0.00,,,0.00,0,weatherlink.com 1.10,2013-09-04 03:03:00,
2013-09-03 23:18:00,59.8,57.0,29.96,NNW,342,0.0,0.0,89,0.00,,,0.00,0,weatherlink.com 1.10,2013-09-04 03:18:00,
2013-09-03 23:33:00,59.3,56.0,29.96,NNW,342,0.0,0.0,90,0.00,,,0.00,0,weatherlink.com 1.10,2013-09-04 03:33:00,
2013-09-03 23:48:00,59.0,56.0,29.97,NNW,342,0.0,0.0,90,0.00,,,0.00,0,weatherlink.com 1.10,2013-09-04 03:48:00,